TimeMDT,TemperatureF,Dew PointF,Humidity,Sea Level PressureIn,VisibilityMPH,Wind Direction,Wind SpeedMPH,Gust SpeedMPH,PrecipitationIn,Events,Conditions,WindDirDegrees,DateUTC
12:53 AM,59.0,48.9,69,29.72,10.0,ENE,8.1,-,N/A,,Clear,70,2013-09-17 06:53:00
1:53 AM,61.0,50.0,67,29.71,10.0,SSW,4.6,-,N/A,,Clear,200,2013-09-17 07:53:00
2:53 AM,60.1,44.1,55,29.69,10.0,South,4.6,-,N/A,,Clear,170,2013-09-17 08:53:00
3:53 AM,59.0,42.1,53,29.68,10.0,South,4.6,-,N/A,,Clear,170,2013-09-17 09:53:00
4:53 AM,57.9,41.0,53,29.67,10.0,SSE,4.6,-,N/A,,Clear,160,2013-09-17 10:53:00
5:53 AM,55.9,41.0,57,29.67,10.0,SSE,4.6,-,N/A,,Clear,160,2013-09-17 11:53:00
6:53 AM,54.0,39.9,59,29.67,10.0,SE,3.5,-,N/A,,Clear,140,2013-09-17 12:53:00
7:53 AM,55.0,42.1,62,29.69,10.0,ESE,3.5,-,N/A,,Clear,110,2013-09-17 13:53:00
8:53 AM,61.0,39.9,46,29.68,10.0,Calm,Calm,-,N/A,,Clear,0,2013-09-17 14:53:00
9:53 AM,61.0,42.1,50,29.68,10.0,Calm,Calm,-,N/A,,Clear,0,2013-09-17 15:53:00
10:53 AM,63.0,45.0,52,29.68,10.0,WNW,3.5,-,N/A,,Clear,290,2013-09-17 16:53:00
11:53 AM,64.0,46.9,54,29.67,10.0,WNW,5.8,-,N/A,,Clear,290,2013-09-17 17:53:00
12:53 PM,64.9,48.9,56,29.66,10.0,WNW,6.9,-,N/A,,Clear,290,2013-09-17 18:53:00
1:53 PM,68.0,46.9,47,29.63,10.0,West,6.9,-,N/A,,Clear,280,2013-09-17 19:53:00
2:53 PM,69.1,48.9,49,29.58,10.0,West,8.1,-,N/A,,Clear,280,2013-09-17 20:53:00
3:53 PM,73.9,42.1,32,29.58,10.0,West,10.4,-,N/A,,Clear,260,2013-09-17 21:53:00
4:53 PM,75.0,39.9,28,29.56,10.0,West,6.9,-,N/A,,Clear,270,2013-09-17 22:53:00
5:53 PM,75.0,36.0,24,29.57,10.0,West,5.8,-,N/A,,Clear,270,2013-09-17 23:53:00
6:53 PM,72.0,37.9,29,29.60,10.0,WSW,9.2,-,N/A,,Clear,240,2013-09-18 00:53:00
7:53 PM,66.9,39.9,37,29.64,10.0,SW,8.1,-,N/A,,Clear,220,2013-09-18 01:53:00
8:53 PM,63.0,42.1,46,29.65,10.0,WSW,10.4,-,N/A,,Partly Cloudy,250,2013-09-18 02:53:00
9:53 PM,60.1,46.0,60,29.70,10.0,WSW,21.9,28.8,N/A,,Clear,250,2013-09-18 03:53:00
10:53 PM,57.9,45.0,62,29.72,10.0,WSW,18.4,25.3,N/A,,Mostly Cloudy,250,2013-09-18 04:53:00
11:53 PM,55.9,43.0,62,29.77,10.0,WSW,16.1,25.3,N/A,,Mostly Cloudy,240,2013-09-18 05:53:00